Time,TemperatureF,DewpointF,PressureIn,WindDirection,WindDirectionDegrees,WindSpeedMPH,WindSpeedGustMPH,Humidity,HourlyPrecipIn,Conditions,Clouds,dailyrainin,SoftwareType,DateUTC
2013-07-06 00:01:00,79.8,63.7,29.90,East,93,5.0,6.0,58,0.00,,---,0.00,VWS V14.01,2013-07-06 05:01:00,
2013-07-06 00:06:00,79.7,63.6,29.90,ENE,65,1.0,5.0,58,0.00,,---,0.00,VWS V14.01,2013-07-06 05:06:00,
2013-07-06 00:11:00,79.6,63.0,29.91,ESE,105,3.0,5.0,57,0.00,,---,0.00,VWS V14.01,2013-07-06 05:11:00,
2013-07-06 00:16:00,79.6,63.5,29.91,East,92,2.0,6.0,58,0.00,,---,0.00,VWS V14.01,2013-07-06 05:16:00,
2013-07-06 00:21:00,79.5,63.4,29.91,East,98,4.0,7.0,58,0.00,,---,0.00,VWS V14.01,2013-07-06 05:21:00,
2013-07-06 00:26:00,79.5,63.4,29.91,SE,126,4.0,7.0,58,0.00,,---,0.00,VWS V14.01,2013-07-06 05:26:00,
2013-07-06 00:31:00,79.4,62.9,29.91,East,96,5.0,7.0,57,0.00,,---,0.00,VWS V14.01,2013-07-06 05:31:00,
2013-07-06 00:36:00,79.3,63.7,29.91,East,100,4.0,6.0,59,0.00,,---,0.00,VWS V14.01,2013-07-06 05:36:00,
2013-07-06 00:41:00,79.2,63.2,29.91,East,88,1.0,6.0,58,0.00,,---,0.00,VWS V14.01,2013-07-06 05:41:00,
2013-07-06 00:46:00,79.2,63.2,29.91,ESE,105,3.0,6.0,58,0.00,,---,0.00,VWS V14.01,2013-07-06 05:46:00,
2013-07-06 00:51:00,79.1,62.6,29.91,East,101,3.0,6.0,57,0.00,,---,0.00,VWS V14.01,2013-07-06 05:51:00,
2013-07-06 00:56:00,78.9,62.9,29.91,East,101,1.0,6.0,58,0.00,,---,0.00,VWS V14.01,2013-07-06 05:56:00,
2013-07-06 01:01:00,78.7,62.7,29.91,East,86,2.0,6.0,58,0.00,,---,0.00,VWS V14.01,2013-07-06 06:01:00,
2013-07-06 01:06:00,78.5,63.0,29.91,East,98,1.0,3.0,59,0.00,,---,0.00,VWS V14.01,2013-07-06 06:06:00,
2013-07-06 01:11:00,78.3,63.3,29.91,East,83,2.0,3.0,60,0.00,,---,0.00,VWS V14.01,2013-07-06 06:11:00,
2013-07-06 01:16:00,78.1,63.6,29.90,East,90,0.0,3.0,61,0.00,,---,0.00,VWS V14.01,2013-07-06 06:16:00,
2013-07-06 01:21:00,77.9,62.9,29.90,East,100,1.0,3.0,60,0.00,,---,0.00,VWS V14.01,2013-07-06 06:21:00,
2013-07-06 01:26:00,77.7,62.7,29.91,ESE,111,1.0,3.0,60,0.00,,---,0.00,VWS V14.01,2013-07-06 06:26:00,
2013-07-06 01:31:00,77.5,62.1,29.90,ESE,105,2.0,3.0,59,0.00,,---,0.00,VWS V14.01,2013-07-06 06:31:00,
2013-07-06 01:36:00,77.4,62.4,29.91,East,91,0.0,3.0,60,0.00,,---,0.00,VWS V14.01,2013-07-06 06:36:00,
2013-07-06 01:41:00,77.3,63.3,29.90,East,89,0.0,3.0,62,0.00,,---,0.00,VWS V14.01,2013-07-06 06:41:00,
2013-07-06 01:46:00,76.9,63.4,29.90,East,89,0.0,3.0,63,0.00,,---,0.00,VWS V14.01,2013-07-06 06:46:00,
2013-07-06 01:51:00,76.2,62.7,29.91,East,89,0.0,3.0,63,0.00,,---,0.00,VWS V14.01,2013-07-06 06:51:00,
2013-07-06 01:56:00,75.6,63.5,29.91,East,79,0.0,3.0,66,0.00,,---,0.00,VWS V14.01,2013-07-06 06:56:00,
2013-07-06 02:01:00,75.4,62.8,29.91,East,84,1.0,3.0,65,0.00,,---,0.00,VWS V14.01,2013-07-06 07:01:00,
2013-07-06 02:06:00,75.8,61.9,29.91,East,98,1.0,1.0,62,0.00,,---,0.00,VWS V14.01,2013-07-06 07:06:00,
2013-07-06 02:11:00,76.1,63.0,29.91,East,93,0.0,1.0,64,0.00,,---,0.00,VWS V14.01,2013-07-06 07:11:00,
2013-07-06 02:15:00,75.8,62.8,29.91,East,93,0.0,1.0,64,0.00,,---,0.00,VWS V14.01,2013-07-06 07:15:00,
2013-07-06 02:21:00,75.6,62.1,29.91,ESE,113,2.0,3.0,63,0.00,,---,0.00,VWS V14.01,2013-07-06 07:21:00,
2013-07-06 02:25:00,76.0,62.5,29.91,ESE,108,2.0,4.0,63,0.00,,---,0.00,VWS V14.01,2013-07-06 07:25:00,
2013-07-06 02:30:00,76.1,62.6,29.91,East,93,0.0,4.0,63,0.00,,---,0.00,VWS V14.01,2013-07-06 07:30:00,
2013-07-06 02:35:00,76.0,62.5,29.91,East,89,1.0,2.0,63,0.00,,---,0.00,VWS V14.01,2013-07-06 07:35:00,
2013-07-06 02:40:00,76.0,62.5,29.91,East,96,1.0,2.0,63,0.00,,---,0.00,VWS V14.01,2013-07-06 07:40:00,
2013-07-06 02:45:00,76.1,62.6,29.91,ESE,105,1.0,3.0,63,0.00,,---,0.00,VWS V14.01,2013-07-06 07:45:00,
2013-07-06 02:50:00,76.1,62.6,29.91,East,87,1.0,3.0,63,0.00,,---,0.00,VWS V14.01,2013-07-06 07:50:00,
2013-07-06 02:55:00,76.1,62.6,29.91,East,81,3.0,3.0,63,0.00,,---,0.00,VWS V14.01,2013-07-06 07:55:00,
2013-07-06 03:00:00,76.1,63.5,29.91,East,95,1.0,3.0,65,0.00,,---,0.00,VWS V14.01,2013-07-06 08:00:00,
2013-07-06 03:05:00,76.1,63.0,29.91,East,101,2.0,3.0,64,0.00,,---,0.00,VWS V14.01,2013-07-06 08:05:00,
2013-07-06 03:10:00,76.0,62.5,29.91,East,91,2.0,3.0,63,0.00,,---,0.00,VWS V14.01,2013-07-06 08:10:00,
2013-07-06 03:15:00,75.8,62.8,29.91,East,89,1.0,3.0,64,0.00,,---,0.00,VWS V14.01,2013-07-06 08:15:00,
2013-07-06 03:20:00,75.7,62.7,29.91,ESE,108,2.0,4.0,64,0.00,,---,0.00,VWS V14.01,2013-07-06 08:20:00,
2013-07-06 03:25:00,75.6,62.6,29.91,East,79,2.0,4.0,64,0.00,,---,0.00,VWS V14.01,2013-07-06 08:25:00,
2013-07-06 03:30:00,75.5,62.9,29.91,ESE,108,3.0,4.0,65,0.00,,---,0.00,VWS V14.01,2013-07-06 08:30:00,
2013-07-06 03:35:00,75.4,62.4,29.91,East,85,3.0,5.0,64,0.00,,---,0.00,VWS V14.01,2013-07-06 08:35:00,
2013-07-06 03:40:00,75.3,62.3,29.91,ESE,108,3.0,5.0,64,0.00,,---,0.00,VWS V14.01,2013-07-06 08:40:00,
2013-07-06 03:45:00,75.1,62.1,29.91,ENE,73,2.0,6.0,64,0.00,,---,0.00,VWS V14.01,2013-07-06 08:45:00,
2013-07-06 03:50:00,75.0,62.5,29.91,East,91,3.0,6.0,65,0.00,,---,0.00,VWS V14.01,2013-07-06 08:50:00,
2013-07-06 03:55:00,74.9,62.8,29.91,ESE,113,4.0,6.0,66,0.00,,---,0.00,VWS V14.01,2013-07-06 08:55:00,
2013-07-06 04:00:00,74.9,62.8,29.91,ENE,77,3.0,6.0,66,0.00,,---,0.00,VWS V14.01,2013-07-06 09:00:00,
2013-07-06 04:05:00,74.8,62.7,29.91,ESE,110,2.0,4.0,66,0.00,,---,0.00,VWS V14.01,2013-07-06 09:05:00,
2013-07-06 04:10:00,74.8,63.1,29.91,East,90,4.0,5.0,67,0.00,,---,0.00,VWS V14.01,2013-07-06 09:10:00,
2013-07-06 04:15:00,74.7,63.5,29.91,East,83,2.0,5.0,68,0.00,,---,0.00,VWS V14.01,2013-07-06 09:15:00,
2013-07-06 04:20:00,74.8,63.5,29.90,ESE,113,1.0,5.0,68,0.00,,---,0.00,VWS V14.01,2013-07-06 09:20:00,
2013-07-06 04:25:00,75.0,63.7,29.91,ESE,115,3.0,5.0,68,0.00,,---,0.00,VWS V14.01,2013-07-06 09:25:00,
2013-07-06 04:30:00,75.0,64.6,29.91,SE,141,4.0,5.0,70,0.00,,---,0.00,VWS V14.01,2013-07-06 09:30:00,
2013-07-06 04:35:00,75.0,63.7,29.91,ESE,107,4.0,5.0,68,0.00,,---,0.00,VWS V14.01,2013-07-06 09:35:00,
2013-07-06 04:40:00,75.0,63.7,29.91,ESE,114,3.0,5.0,68,0.00,,---,0.00,VWS V14.01,2013-07-06 09:40:00,
2013-07-06 04:45:00,74.9,63.2,29.91,SE,128,3.0,5.0,67,0.00,,---,0.00,VWS V14.01,2013-07-06 09:45:00,
2013-07-06 04:50:00,74.9,63.6,29.91,East,96,2.0,6.0,68,0.00,,---,0.00,VWS V14.01,2013-07-06 09:50:00,
2013-07-06 04:55:00,74.8,64.0,29.91,East,101,2.0,6.0,69,0.00,,---,0.00,VWS V14.01,2013-07-06 09:55:00,
2013-07-06 05:00:00,74.7,63.9,29.91,SE,129,2.0,6.0,69,0.00,,---,0.00,VWS V14.01,2013-07-06 10:00:00,
2013-07-06 05:05:00,74.6,64.2,29.91,ESE,108,2.0,4.0,70,0.00,,---,0.00,VWS V14.01,2013-07-06 10:05:00,
2013-07-06 05:10:00,74.6,64.2,29.91,ESE,104,4.0,5.0,70,0.00,,---,0.00,VWS V14.01,2013-07-06 10:10:00,
2013-07-06 05:15:00,74.6,64.6,29.91,East,93,3.0,5.0,71,0.00,,---,0.00,VWS V14.01,2013-07-06 10:15:00,
2013-07-06 05:20:00,74.5,64.9,29.91,SE,125,4.0,5.0,72,0.00,,---,0.00,VWS V14.01,2013-07-06 10:20:00,
2013-07-06 05:25:00,74.2,64.6,29.91,East,98,2.0,5.0,72,0.00,,---,0.00,VWS V14.01,2013-07-06 10:25:00,
2013-07-06 05:30:00,73.8,64.2,29.91,ENE,68,0.0,5.0,72,0.00,,---,0.00,VWS V14.01,2013-07-06 10:30:00,
2013-07-06 05:35:00,73.4,63.8,29.91,East,86,2.0,4.0,72,0.00,,---,0.00,VWS V14.01,2013-07-06 10:35:00,
2013-07-06 05:40:00,73.2,64.0,29.91,East,79,4.0,5.0,73,0.00,,---,0.00,VWS V14.01,2013-07-06 10:40:00,
2013-07-06 05:45:00,73.0,63.8,29.91,East,96,1.0,5.0,73,0.00,,---,0.00,VWS V14.01,2013-07-06 10:45:00,
2013-07-06 05:50:00,72.8,64.4,29.91,ESE,115,2.0,5.0,75,0.00,,---,0.00,VWS V14.01,2013-07-06 10:50:00,
2013-07-06 05:55:00,72.8,64.8,29.91,East,80,2.0,5.0,76,0.00,,---,0.00,VWS V14.01,2013-07-06 10:55:00,
2013-07-06 06:00:00,72.7,64.7,29.91,ESE,103,3.0,5.0,76,0.00,,---,0.00,VWS V14.01,2013-07-06 11:00:00,
2013-07-06 06:05:00,72.7,64.7,29.91,ENE,77,2.0,3.0,76,0.00,,---,0.00,VWS V14.01,2013-07-06 11:05:00,
2013-07-06 06:10:00,72.6,64.6,29.91,East,91,2.0,3.0,76,0.00,,---,0.00,VWS V14.01,2013-07-06 11:10:00,
2013-07-06 06:15:00,72.5,64.5,29.91,ESE,120,3.0,4.0,76,0.00,,---,0.00,VWS V14.01,2013-07-06 11:15:00,
2013-07-06 06:20:00,72.5,64.9,29.91,East,82,2.0,4.0,77,0.00,,---,0.00,VWS V14.01,2013-07-06 11:20:00,
2013-07-06 06:25:00,72.4,65.2,29.91,East,101,1.0,4.0,78,0.00,,---,0.00,VWS V14.01,2013-07-06 11:25:00,
2013-07-06 06:30:00,72.5,65.3,29.91,East,95,2.0,4.0,78,0.00,,---,0.00,VWS V14.01,2013-07-06 11:30:00,
2013-07-06 06:35:00,72.6,66.1,29.91,East,96,1.0,2.0,80,0.00,,---,0.00,VWS V14.01,2013-07-06 11:35:00,
2013-07-06 06:40:00,72.8,66.6,29.91,East,92,3.0,4.0,81,0.00,,---,0.00,VWS V14.01,2013-07-06 11:40:00,
2013-07-06 06:45:00,73.1,66.6,29.91,ESE,115,1.0,5.0,80,0.00,,---,0.00,VWS V14.01,2013-07-06 11:45:00,
2013-07-06 06:50:00,73.4,66.9,29.91,East,99,3.0,5.0,80,0.00,,---,0.00,VWS V14.01,2013-07-06 11:50:00,
2013-07-06 06:55:00,73.6,67.1,29.91,East,94,2.0,5.0,80,0.00,,---,0.00,VWS V14.01,2013-07-06 11:55:00,
2013-07-06 07:00:00,73.6,67.1,29.91,East,101,4.0,5.0,80,0.00,,---,0.00,VWS V14.01,2013-07-06 12:00:00,
2013-07-06 07:05:00,73.7,67.5,29.91,ESE,111,1.0,5.0,81,0.00,,---,0.00,VWS V14.01,2013-07-06 12:05:00,
2013-07-06 07:10:00,73.7,67.2,29.91,SE,138,2.0,5.0,80,0.00,,---,0.00,VWS V14.01,2013-07-06 12:10:00,
2013-07-06 07:15:00,73.8,67.6,29.92,ESE,110,2.0,5.0,81,0.00,,---,0.00,VWS V14.01,2013-07-06 12:15:00,
2013-07-06 07:20:00,74.0,68.2,29.92,East,98,4.0,5.0,82,0.00,,---,0.00,VWS V14.01,2013-07-06 12:20:00,
2013-07-06 07:25:00,74.0,68.2,29.92,ESE,104,2.0,5.0,82,0.00,,---,0.00,VWS V14.01,2013-07-06 12:25:00,
2013-07-06 07:30:00,74.0,67.8,29.92,ESE,114,2.0,5.0,81,0.00,,---,0.00,VWS V14.01,2013-07-06 12:30:00,
2013-07-06 07:35:00,74.3,68.1,29.92,ESE,107,2.0,4.0,81,0.00,,---,0.00,VWS V14.01,2013-07-06 12:35:00,
2013-07-06 07:40:00,74.5,67.9,29.92,SE,136,2.0,4.0,80,0.00,,---,0.00,VWS V14.01,2013-07-06 12:40:00,
2013-07-06 07:45:00,74.8,68.2,29.93,ESE,105,1.0,4.0,80,0.00,,---,0.00,VWS V14.01,2013-07-06 12:45:00,
2013-07-06 07:50:00,75.0,68.4,29.93,ESE,115,1.0,4.0,80,0.00,,---,0.00,VWS V14.01,2013-07-06 12:50:00,
2013-07-06 07:55:00,75.3,68.7,29.93,East,100,2.0,4.0,80,0.00,,---,0.00,VWS V14.01,2013-07-06 12:55:00,
2013-07-06 08:00:00,75.5,68.9,29.93,ESE,107,3.0,5.0,80,0.00,,---,0.00,VWS V14.01,2013-07-06 13:00:00,
2013-07-06 08:05:00,75.8,69.6,29.92,ESE,105,3.0,4.0,81,0.00,,---,0.00,VWS V14.01,2013-07-06 13:05:00,
2013-07-06 08:10:00,76.1,69.8,29.93,SE,138,1.0,5.0,81,0.00,,---,0.00,VWS V14.01,2013-07-06 13:10:00,
2013-07-06 08:15:00,76.4,69.8,29.93,ESE,117,3.0,5.0,80,0.00,,---,0.00,VWS V14.01,2013-07-06 13:15:00,
2013-07-06 08:20:00,76.4,70.1,29.93,ESE,103,1.0,5.0,81,0.00,,---,0.00,VWS V14.01,2013-07-06 13:20:00,
2013-07-06 08:25:00,76.8,70.5,29.93,East,98,3.0,5.0,81,0.00,,---,0.00,VWS V14.01,2013-07-06 13:25:00,
2013-07-06 08:30:00,77.0,70.4,29.93,East,100,5.0,5.0,80,0.00,,---,0.00,VWS V14.01,2013-07-06 13:30:00,
2013-07-06 08:35:00,77.3,71.0,29.93,SSE,147,3.0,5.0,81,0.00,,---,0.00,VWS V14.01,2013-07-06 13:35:00,
2013-07-06 08:40:00,77.5,71.6,29.93,SE,129,5.0,6.0,82,0.00,,---,0.00,VWS V14.01,2013-07-06 13:40:00,
2013-07-06 08:45:00,77.9,72.0,29.93,ESE,108,4.0,7.0,82,0.00,,---,0.00,VWS V14.01,2013-07-06 13:45:00,
2013-07-06 08:50:00,78.3,72.0,29.93,East,87,3.0,7.0,81,0.00,,---,0.00,VWS V14.01,2013-07-06 13:50:00,
2013-07-06 08:55:00,78.5,72.6,29.93,East,100,4.0,7.0,82,0.00,,---,0.00,VWS V14.01,2013-07-06 13:55:00,
2013-07-06 09:00:00,78.8,72.5,29.93,ESE,117,4.0,7.0,81,0.00,,---,0.00,VWS V14.01,2013-07-06 14:00:00,
2013-07-06 09:05:00,79.1,72.4,29.93,SSE,162,2.0,4.0,80,0.00,,---,0.00,VWS V14.01,2013-07-06 14:05:00,
2013-07-06 09:10:00,79.5,72.4,29.93,SSE,149,4.0,5.0,79,0.00,,---,0.00,VWS V14.01,2013-07-06 14:10:00,
2013-07-06 09:15:00,79.9,72.1,29.93,SSE,153,4.0,5.0,77,0.00,,---,0.00,VWS V14.01,2013-07-06 14:15:00,
2013-07-06 09:20:00,79.9,72.8,29.93,SSE,147,3.0,5.0,79,0.00,,---,0.00,VWS V14.01,2013-07-06 14:20:00,
2013-07-06 09:25:00,80.1,72.6,29.93,SE,129,4.0,5.0,78,0.00,,---,0.00,VWS V14.01,2013-07-06 14:25:00,
2013-07-06 09:30:00,80.4,72.5,29.93,ESE,122,3.0,5.0,77,0.00,,---,0.00,VWS V14.01,2013-07-06 14:30:00,
2013-07-06 09:35:00,80.5,72.6,29.93,ESE,118,5.0,5.0,77,0.00,,---,0.00,VWS V14.01,2013-07-06 14:35:00,
2013-07-06 09:40:00,80.8,72.9,29.93,SE,143,2.0,5.0,77,0.00,,---,0.00,VWS V14.01,2013-07-06 14:40:00,
2013-07-06 09:45:00,81.1,72.8,29.93,SE,135,3.0,5.0,76,0.00,,---,0.00,VWS V14.01,2013-07-06 14:45:00,
2013-07-06 09:50:00,81.4,73.1,29.93,ESE,121,3.0,5.0,76,0.00,,---,0.00,VWS V14.01,2013-07-06 14:50:00,
2013-07-06 09:55:00,81.4,73.1,29.93,SE,127,2.0,5.0,76,0.00,,---,0.00,VWS V14.01,2013-07-06 14:55:00,
2013-07-06 10:00:00,81.6,72.9,29.93,SE,124,2.0,5.0,75,0.00,,---,0.00,VWS V14.01,2013-07-06 15:00:00,
2013-07-06 10:05:00,81.9,73.2,29.93,SE,128,2.0,4.0,75,0.00,,---,0.00,VWS V14.01,2013-07-06 15:05:00,
2013-07-06 10:10:00,82.4,73.7,29.93,ESE,107,2.0,4.0,75,0.00,,---,0.00,VWS V14.01,2013-07-06 15:10:00,
2013-07-06 10:15:00,82.9,73.8,29.93,ESE,105,1.0,4.0,74,0.00,,---,0.00,VWS V14.01,2013-07-06 15:15:00,
2013-07-06 10:20:00,83.4,73.8,29.93,ESE,112,3.0,4.0,73,0.00,,---,0.00,VWS V14.01,2013-07-06 15:20:00,
2013-07-06 10:25:00,84.2,73.8,29.93,East,84,1.0,4.0,71,0.00,,---,0.00,VWS V14.01,2013-07-06 15:25:00,
2013-07-06 10:30:00,84.6,74.2,29.93,ESE,107,1.0,4.0,71,0.00,,---,0.00,VWS V14.01,2013-07-06 15:30:00,
2013-07-06 10:35:00,85.2,73.9,29.93,SE,129,1.0,2.0,69,0.00,,---,0.00,VWS V14.01,2013-07-06 15:35:00,
2013-07-06 10:40:00,85.7,73.5,29.93,SSE,153,1.0,4.0,67,0.00,,---,0.00,VWS V14.01,2013-07-06 15:40:00,
2013-07-06 10:45:00,86.1,73.4,29.92,SE,129,2.0,4.0,66,0.00,,---,0.00,VWS V14.01,2013-07-06 15:45:00,
2013-07-06 10:50:00,86.5,73.3,29.93,East,90,1.0,4.0,65,0.00,,---,0.00,VWS V14.01,2013-07-06 15:50:00,
2013-07-06 10:55:00,86.2,73.1,29.93,East,97,1.0,4.0,65,0.00,,---,0.00,VWS V14.01,2013-07-06 15:55:00,
2013-07-06 11:00:00,86.4,73.2,29.93,ESE,110,2.0,4.0,65,0.00,,---,0.00,VWS V14.01,2013-07-06 16:00:00,
2013-07-06 11:05:00,86.2,73.1,29.93,ESE,114,2.0,4.0,65,0.00,,---,0.00,VWS V14.01,2013-07-06 16:05:00,
2013-07-06 11:10:00,86.0,73.8,29.93,ESE,114,1.0,4.0,67,0.00,,---,0.00,VWS V14.01,2013-07-06 16:10:00,
2013-07-06 11:15:00,85.9,72.8,29.92,ESE,112,1.0,4.0,65,0.00,,---,0.00,VWS V14.01,2013-07-06 16:15:00,
2013-07-06 11:21:00,86.6,72.5,29.92,ESE,103,2.0,4.0,63,0.00,,---,0.00,VWS V14.01,2013-07-06 16:21:00,
2013-07-06 11:26:00,87.1,73.0,29.92,East,101,2.0,4.0,63,0.00,,---,0.00,VWS V14.01,2013-07-06 16:26:00,
2013-07-06 11:31:00,87.7,72.6,29.92,SSE,163,3.0,5.0,61,0.00,,---,0.00,VWS V14.01,2013-07-06 16:31:00,
2013-07-06 11:36:00,88.0,72.9,29.92,SE,144,2.0,5.0,61,0.00,,---,0.00,VWS V14.01,2013-07-06 16:36:00,
2013-07-06 11:42:00,88.2,71.6,29.92,ESE,108,1.0,5.0,58,0.00,,---,0.00,VWS V14.01,2013-07-06 16:42:00,
2013-07-06 11:47:00,88.1,71.5,29.92,SE,141,3.0,5.0,58,0.00,,---,0.00,VWS V14.01,2013-07-06 16:47:00,
2013-07-06 11:52:00,88.8,70.6,29.92,East,93,3.0,6.0,55,0.00,,---,0.00,VWS V14.01,2013-07-06 16:52:00,
2013-07-06 11:57:00,89.9,69.9,29.92,ESE,108,2.0,6.0,52,0.00,,---,0.00,VWS V14.01,2013-07-06 16:57:00,
2013-07-06 12:02:00,90.1,70.7,29.92,East,82,3.0,3.0,53,0.00,,---,0.00,VWS V14.01,2013-07-06 17:02:00,
2013-07-06 12:07:00,91.2,70.0,29.92,SSE,160,2.0,5.0,50,0.00,,---,0.00,VWS V14.01,2013-07-06 17:07:00,
2013-07-06 12:12:00,91.0,69.2,29.92,SSE,167,1.0,5.0,49,0.00,,---,0.00,VWS V14.01,2013-07-06 17:12:00,
2013-07-06 12:17:00,90.8,69.0,29.92,ESE,121,1.0,5.0,49,0.00,,---,0.00,VWS V14.01,2013-07-06 17:17:00,
2013-07-06 12:22:00,91.0,69.8,29.92,ESE,107,3.0,5.0,50,0.00,,---,0.00,VWS V14.01,2013-07-06 17:22:00,
2013-07-06 12:27:00,90.3,69.2,29.92,SE,146,1.0,7.0,50,0.00,,---,0.00,VWS V14.01,2013-07-06 17:27:00,
2013-07-06 12:32:00,90.0,68.9,29.92,East,98,3.0,6.0,50,0.00,,---,0.00,VWS V14.01,2013-07-06 17:32:00,
2013-07-06 12:37:00,89.6,69.7,29.92,ENE,75,2.0,6.0,52,0.00,,---,0.00,VWS V14.01,2013-07-06 17:37:00,
2013-07-06 12:42:00,90.1,69.6,29.92,East,83,0.0,6.0,51,0.00,,---,0.00,VWS V14.01,2013-07-06 17:42:00,
2013-07-06 12:47:00,90.4,69.8,29.91,SE,124,3.0,6.0,51,0.00,,---,0.00,VWS V14.01,2013-07-06 17:47:00,
2013-07-06 12:52:00,90.7,70.1,29.91,East,94,4.0,6.0,51,0.00,,---,0.00,VWS V14.01,2013-07-06 17:52:00,
2013-07-06 12:57:00,90.5,69.9,29.91,SSE,149,1.0,6.0,51,0.00,,---,0.00,VWS V14.01,2013-07-06 17:57:00,
2013-07-06 13:02:00,90.4,69.8,29.91,East,86,1.0,6.0,51,0.00,,---,0.00,VWS V14.01,2013-07-06 18:02:00,
2013-07-06 13:08:00,91.3,70.7,29.91,ESE,111,0.0,7.0,51,0.00,,---,0.00,VWS V14.01,2013-07-06 18:08:00,
2013-07-06 13:13:00,92.1,69.0,29.91,East,86,0.0,7.0,47,0.00,,---,0.00,VWS V14.01,2013-07-06 18:13:00,
2013-07-06 13:19:00,92.7,70.2,29.90,East,81,0.0,7.0,48,0.00,,---,0.00,VWS V14.01,2013-07-06 18:19:00,
2013-07-06 13:24:00,93.4,69.5,29.90,East,86,3.0,7.0,46,0.00,,---,0.00,VWS V14.01,2013-07-06 18:24:00,
2013-07-06 13:29:00,93.0,68.5,29.90,East,101,0.0,7.0,45,0.00,,---,0.00,VWS V14.01,2013-07-06 18:29:00,
2013-07-06 13:34:00,93.1,68.0,29.90,East,79,3.0,4.0,44,0.00,,---,0.00,VWS V14.01,2013-07-06 18:34:00,
2013-07-06 13:39:00,94.3,68.4,29.90,East,94,2.0,4.0,43,0.00,,---,0.00,VWS V14.01,2013-07-06 18:39:00,
2013-07-06 13:44:00,95.1,68.4,29.90,SSE,160,1.0,4.0,42,0.00,,---,0.00,VWS V14.01,2013-07-06 18:44:00,
2013-07-06 13:50:00,95.0,69.0,29.89,SE,126,2.0,7.0,43,0.00,,---,0.00,VWS V14.01,2013-07-06 18:50:00,
2013-07-06 13:55:00,95.3,67.9,29.89,SSW,212,1.0,7.0,41,0.00,,---,0.00,VWS V14.01,2013-07-06 18:55:00,
2013-07-06 14:00:00,95.6,69.6,29.89,ENE,77,3.0,7.0,43,0.00,,---,0.00,VWS V14.01,2013-07-06 19:00:00,
2013-07-06 14:05:00,95.0,66.9,29.89,East,86,3.0,6.0,40,0.00,,---,0.00,VWS V14.01,2013-07-06 19:05:00,
2013-07-06 14:10:00,94.9,68.2,29.88,ESE,105,0.0,6.0,42,0.00,,---,0.00,VWS V14.01,2013-07-06 19:10:00,
2013-07-06 14:16:00,95.8,68.3,29.88,East,79,4.0,6.0,41,0.00,,---,0.00,VWS V14.01,2013-07-06 19:16:00,
2013-07-06 14:21:00,94.9,66.1,29.88,ESE,121,2.0,8.0,39,0.00,,---,0.00,VWS V14.01,2013-07-06 19:21:00,
2013-07-06 14:26:00,94.9,68.9,29.88,East,79,2.0,8.0,43,0.00,,---,0.00,VWS V14.01,2013-07-06 19:26:00,
2013-07-06 14:31:00,95.5,67.4,29.88,East,91,2.0,8.0,40,0.00,,---,0.00,VWS V14.01,2013-07-06 19:31:00,
2013-07-06 14:36:00,94.8,66.0,29.88,East,101,3.0,7.0,39,0.00,,---,0.00,VWS V14.01,2013-07-06 19:36:00,
2013-07-06 14:41:00,94.7,68.1,29.88,ENE,65,3.0,7.0,42,0.00,,---,0.00,VWS V14.01,2013-07-06 19:41:00,
2013-07-06 14:46:00,95.2,67.8,29.88,NE,56,2.0,7.0,41,0.00,,---,0.00,VWS V14.01,2013-07-06 19:46:00,
2013-07-06 14:51:00,95.0,69.0,29.88,East,80,4.0,7.0,43,0.00,,---,0.00,VWS V14.01,2013-07-06 19:51:00,
2013-07-06 14:56:00,94.9,66.1,29.88,East,90,0.0,7.0,39,0.00,,---,0.00,VWS V14.01,2013-07-06 19:56:00,
2013-07-06 15:01:00,95.0,66.9,29.87,ESE,102,2.0,2.0,40,0.00,,---,0.00,VWS V14.01,2013-07-06 20:01:00,
2013-07-06 15:07:00,95.1,67.0,29.87,East,87,1.0,2.0,40,0.00,,---,0.00,VWS V14.01,2013-07-06 20:07:00,
2013-07-06 15:12:00,95.7,66.8,29.87,SSE,149,2.0,3.0,39,0.00,,---,0.00,VWS V14.01,2013-07-06 20:12:00,
2013-07-06 15:17:00,96.2,67.2,29.87,East,89,1.0,3.0,39,0.00,,---,0.00,VWS V14.01,2013-07-06 20:17:00,
2013-07-06 15:23:00,96.3,65.8,29.87,ESE,108,6.0,6.0,37,0.00,,---,0.00,VWS V14.01,2013-07-06 20:23:00,
2013-07-06 15:28:00,95.5,65.1,29.86,East,95,6.0,7.0,37,0.00,,---,0.00,VWS V14.01,2013-07-06 20:28:00,
2013-07-06 15:33:00,96.1,67.2,29.86,East,88,3.0,7.0,39,0.00,,---,0.00,VWS V14.01,2013-07-06 20:33:00,
2013-07-06 15:38:00,96.6,68.3,29.86,East,79,4.0,7.0,40,0.00,,---,0.00,VWS V14.01,2013-07-06 20:38:00,
2013-07-06 15:43:00,96.5,66.0,29.86,ENE,75,1.0,7.0,37,0.00,,---,0.00,VWS V14.01,2013-07-06 20:43:00,
2013-07-06 15:48:00,96.5,66.0,29.85,NE,52,3.0,7.0,37,0.00,,---,0.00,VWS V14.01,2013-07-06 20:48:00,
2013-07-06 15:53:00,96.7,67.7,29.85,East,96,1.0,7.0,39,0.00,,---,0.00,VWS V14.01,2013-07-06 20:53:00,
2013-07-06 15:59:00,97.1,68.0,29.85,ENE,62,2.0,7.0,39,0.00,,---,0.00,VWS V14.01,2013-07-06 20:59:00,
2013-07-06 16:04:00,97.0,67.2,29.85,NW,314,2.0,5.0,38,0.00,,---,0.00,VWS V14.01,2013-07-06 21:04:00,
2013-07-06 16:09:00,96.8,67.0,29.85,East,97,4.0,5.0,38,0.00,,---,0.00,VWS V14.01,2013-07-06 21:09:00,
2013-07-06 16:14:00,96.1,64.0,29.85,East,99,2.0,6.0,35,0.00,,---,0.00,VWS V14.01,2013-07-06 21:14:00,
2013-07-06 16:19:00,96.0,65.6,29.85,ENE,76,2.0,6.0,37,0.00,,---,0.00,VWS V14.01,2013-07-06 21:19:00,
2013-07-06 16:24:00,95.8,63.8,29.84,ENE,70,2.0,6.0,35,0.00,,---,0.00,VWS V14.01,2013-07-06 21:24:00,
2013-07-06 16:29:00,96.4,65.1,29.84,SE,124,1.0,6.0,36,0.00,,---,0.00,VWS V14.01,2013-07-06 21:29:00,
2013-07-06 16:34:00,96.5,65.2,29.84,East,87,2.0,3.0,36,0.00,,---,0.00,VWS V14.01,2013-07-06 21:34:00,
2013-07-06 16:40:00,97.2,65.8,29.84,SE,131,1.0,6.0,36,0.00,,---,0.00,VWS V14.01,2013-07-06 21:40:00,
2013-07-06 16:45:00,97.2,65.8,29.84,ENE,63,3.0,6.0,36,0.00,,---,0.00,VWS V14.01,2013-07-06 21:45:00,
2013-07-06 16:50:00,96.8,67.8,29.84,East,95,5.0,7.0,39,0.00,,---,0.00,VWS V14.01,2013-07-06 21:50:00,
2013-07-06 16:55:00,96.3,65.0,29.84,ENE,78,5.0,7.0,36,0.00,,---,0.00,VWS V14.01,2013-07-06 21:55:00,
2013-07-06 17:00:00,96.0,64.8,29.84,ENE,58,3.0,7.0,36,0.00,,---,0.00,VWS V14.01,2013-07-06 22:00:00,
2013-07-06 17:05:00,95.5,65.1,29.84,ENE,77,1.0,6.0,37,0.00,,---,0.00,VWS V14.01,2013-07-06 22:05:00,
2013-07-06 17:10:00,94.9,64.6,29.84,ENE,62,5.0,8.0,37,0.00,,---,0.00,VWS V14.01,2013-07-06 22:10:00,
2013-07-06 17:16:00,94.4,67.1,29.84,East,82,2.0,8.0,41,0.00,,---,0.00,VWS V14.01,2013-07-06 22:16:00,
2013-07-06 17:21:00,94.0,66.0,29.84,WSW,249,1.0,8.0,40,0.00,,---,0.00,VWS V14.01,2013-07-06 22:21:00,
2013-07-06 17:26:00,93.3,63.9,29.84,East,91,3.0,8.0,38,0.00,,---,0.00,VWS V14.01,2013-07-06 22:26:00,
2013-07-06 17:31:00,93.2,66.0,29.83,East,85,2.0,8.0,41,0.00,,---,0.00,VWS V14.01,2013-07-06 22:31:00,
2013-07-06 17:36:00,93.5,64.1,29.83,East,95,1.0,3.0,38,0.00,,---,0.00,VWS V14.01,2013-07-06 22:36:00,
2013-07-06 17:41:00,94.4,64.1,29.83,ESE,111,0.0,3.0,37,0.00,,---,0.00,VWS V14.01,2013-07-06 22:41:00,
2013-07-06 17:47:00,95.2,66.4,29.83,ENE,73,2.0,4.0,39,0.00,,---,0.00,VWS V14.01,2013-07-06 22:47:00,
2013-07-06 17:52:00,95.8,67.6,29.83,SW,225,1.0,4.0,40,0.00,,---,0.00,VWS V14.01,2013-07-06 22:52:00,
2013-07-06 17:57:00,95.8,64.6,29.83,SE,124,1.0,4.0,36,0.00,,---,0.00,VWS V14.01,2013-07-06 22:57:00,
2013-07-06 18:02:00,95.7,64.5,29.83,ENE,65,3.0,3.0,36,0.00,,---,0.00,VWS V14.01,2013-07-06 23:02:00,
2013-07-06 18:07:00,95.4,64.2,29.83,East,83,4.0,6.0,36,0.00,,---,0.00,VWS V14.01,2013-07-06 23:07:00,
2013-07-06 18:13:00,94.4,65.7,29.83,East,94,2.0,7.0,39,0.00,,---,0.00,VWS V14.01,2013-07-06 23:13:00,
2013-07-06 18:18:00,94.2,66.2,29.83,East,89,3.0,7.0,40,0.00,,---,0.00,VWS V14.01,2013-07-06 23:18:00,
2013-07-06 18:23:00,93.8,67.9,29.83,East,94,5.0,7.0,43,0.00,,---,0.00,VWS V14.01,2013-07-06 23:23:00,
2013-07-06 18:28:00,93.3,66.8,29.83,ENE,65,3.0,7.0,42,0.00,,---,0.00,VWS V14.01,2013-07-06 23:28:00,
2013-07-06 18:33:00,93.1,67.3,29.83,ENE,77,4.0,6.0,43,0.00,,---,0.00,VWS V14.01,2013-07-06 23:33:00,
2013-07-06 18:38:00,93.0,64.4,29.83,NNW,334,2.0,8.0,39,0.00,,---,0.00,VWS V14.01,2013-07-06 23:38:00,
2013-07-06 18:43:00,93.1,65.9,29.83,East,97,4.0,8.0,41,0.00,,---,0.00,VWS V14.01,2013-07-06 23:43:00,
2013-07-06 18:48:00,92.6,65.5,29.83,ENE,61,4.0,8.0,41,0.00,,---,0.00,VWS V14.01,2013-07-06 23:48:00,
2013-07-06 18:53:00,92.5,65.4,29.83,NNE,13,3.0,8.0,41,0.00,,---,0.00,VWS V14.01,2013-07-06 23:53:00,
2013-07-06 18:59:00,92.3,64.5,29.83,East,84,4.0,8.0,40,0.00,,---,0.00,VWS V14.01,2013-07-06 23:59:00,
2013-07-06 19:05:00,92.1,64.3,29.83,East,83,3.0,6.0,40,0.00,,---,0.00,VWS V14.01,2013-07-07 00:05:00,
2013-07-06 19:10:00,91.8,62.6,29.84,NE,56,2.0,8.0,38,0.00,,---,0.00,VWS V14.01,2013-07-07 00:10:00,
2013-07-06 19:15:00,91.5,65.2,29.84,ENE,78,4.0,8.0,42,0.00,,---,0.00,VWS V14.01,2013-07-07 00:15:00,
2013-07-06 19:20:00,91.0,64.7,29.84,ENE,58,5.0,8.0,42,0.00,,---,0.00,VWS V14.01,2013-07-07 00:20:00,
2013-07-06 19:25:00,90.7,65.8,29.84,East,84,3.0,8.0,44,0.00,,---,0.00,VWS V14.01,2013-07-07 00:25:00,
2013-07-06 19:31:00,90.3,64.8,29.84,South,169,2.0,8.0,43,0.00,,---,0.00,VWS V14.01,2013-07-07 00:31:00,
2013-07-06 19:36:00,89.9,65.7,29.84,ENE,75,3.0,6.0,45,0.00,,---,0.00,VWS V14.01,2013-07-07 00:36:00,
2013-07-06 19:41:00,89.7,65.6,29.84,ENE,68,2.0,6.0,45,0.00,,---,0.00,VWS V14.01,2013-07-07 00:41:00,
2013-07-06 19:46:00,89.4,65.9,29.84,East,81,2.0,6.0,46,0.00,,---,0.00,VWS V14.01,2013-07-07 00:46:00,
2013-07-06 19:51:00,89.0,64.9,29.84,East,79,2.0,6.0,45,0.00,,---,0.00,VWS V14.01,2013-07-07 00:51:00,
2013-07-06 19:56:00,88.7,65.9,29.85,ENE,74,3.0,6.0,47,0.00,,---,0.00,VWS V14.01,2013-07-07 00:56:00,
2013-07-06 20:01:00,88.4,65.0,29.85,ENE,74,2.0,6.0,46,0.00,,---,0.00,VWS V14.01,2013-07-07 01:01:00,
2013-07-06 20:06:00,88.2,66.1,29.85,West,279,1.0,5.0,48,0.00,,---,0.00,VWS V14.01,2013-07-07 01:06:00,
2013-07-06 20:11:00,87.9,65.8,29.85,ENE,77,4.0,5.0,48,0.00,,---,0.00,VWS V14.01,2013-07-07 01:11:00,
2013-07-06 20:16:00,87.7,66.8,29.85,NNE,22,5.0,6.0,50,0.00,,---,0.00,VWS V14.01,2013-07-07 01:16:00,
2013-07-06 20:21:00,87.4,67.6,29.85,East,85,3.0,6.0,52,0.00,,---,0.00,VWS V14.01,2013-07-07 01:21:00,
2013-07-06 20:26:00,87.1,66.8,29.85,East,96,4.0,6.0,51,0.00,,---,0.00,VWS V14.01,2013-07-07 01:26:00,
2013-07-06 20:31:00,86.8,67.1,29.85,ENE,63,4.0,4.0,52,0.00,,---,0.00,VWS V14.01,2013-07-07 01:31:00,
2013-07-06 20:36:00,86.5,67.3,29.86,ENE,71,3.0,5.0,53,0.00,,---,0.00,VWS V14.01,2013-07-07 01:36:00,
2013-07-06 20:42:00,86.3,67.7,29.86,SE,139,2.0,6.0,54,0.00,,---,0.00,VWS V14.01,2013-07-07 01:42:00,
2013-07-06 20:47:00,86.0,66.9,29.86,ESE,110,4.0,6.0,53,0.00,,---,0.00,VWS V14.01,2013-07-07 01:47:00,
2013-07-06 20:52:00,85.8,66.7,29.86,ESE,105,4.0,6.0,53,0.00,,---,0.00,VWS V14.01,2013-07-07 01:52:00,
2013-07-06 20:57:00,85.7,66.6,29.86,North,11,3.0,6.0,53,0.00,,---,0.00,VWS V14.01,2013-07-07 01:57:00,
2013-07-06 21:02:00,85.5,65.3,29.86,West,273,1.0,5.0,51,0.00,,---,0.00,VWS V14.01,2013-07-07 02:02:00,
2013-07-06 21:07:00,85.4,66.3,29.86,ENE,67,2.0,5.0,53,0.00,,---,0.00,VWS V14.01,2013-07-07 02:07:00,
2013-07-06 21:13:00,85.2,65.6,29.87,NE,37,4.0,6.0,52,0.00,,---,0.00,VWS V14.01,2013-07-07 02:13:00,
2013-07-06 21:18:00,85.0,66.5,29.87,NE,49,4.0,6.0,54,0.00,,---,0.00,VWS V14.01,2013-07-07 02:18:00,
2013-07-06 21:24:00,84.9,66.4,29.87,North,11,3.0,7.0,54,0.00,,---,0.00,VWS V14.01,2013-07-07 02:24:00,
2013-07-06 21:29:00,84.9,66.4,29.87,East,92,3.0,8.0,54,0.00,,---,0.00,VWS V14.01,2013-07-07 02:29:00,
2013-07-06 21:34:00,84.8,66.8,29.88,NE,51,3.0,6.0,55,0.00,,---,0.00,VWS V14.01,2013-07-07 02:34:00,
2013-07-06 21:39:00,84.7,66.2,29.88,East,93,4.0,7.0,54,0.00,,---,0.00,VWS V14.01,2013-07-07 02:39:00,
2013-07-06 21:45:00,84.6,66.1,29.88,SE,142,2.0,7.0,54,0.00,,---,0.00,VWS V14.01,2013-07-07 02:45:00,
2013-07-06 21:50:00,84.4,67.0,29.88,East,81,5.0,7.0,56,0.00,,---,0.00,VWS V14.01,2013-07-07 02:50:00,
2013-07-06 21:56:00,84.1,66.2,29.89,ENE,68,2.0,7.0,55,0.00,,---,0.00,VWS V14.01,2013-07-07 02:56:00,
2013-07-06 22:01:00,83.9,66.0,29.89,East,101,2.0,7.0,55,0.00,,---,0.00,VWS V14.01,2013-07-07 03:01:00,
2013-07-06 22:06:00,83.8,67.5,29.89,SE,124,3.0,6.0,58,0.00,,---,0.00,VWS V14.01,2013-07-07 03:06:00,
2013-07-06 22:11:00,83.6,66.8,29.89,East,82,2.0,6.0,57,0.00,,---,0.00,VWS V14.01,2013-07-07 03:11:00,
2013-07-06 22:16:00,83.4,67.1,29.89,East,93,5.0,7.0,58,0.00,,---,0.00,VWS V14.01,2013-07-07 03:16:00,
2013-07-06 22:21:00,83.3,67.0,29.89,ENE,75,3.0,7.0,58,0.00,,---,0.00,VWS V14.01,2013-07-07 03:21:00,
2013-07-06 22:26:00,83.2,67.4,29.89,North,352,2.0,7.0,59,0.00,,---,0.00,VWS V14.01,2013-07-07 03:26:00,
2013-07-06 22:31:00,83.1,66.3,29.90,ENE,57,6.0,8.0,57,0.00,,---,0.00,VWS V14.01,2013-07-07 03:31:00,
2013-07-06 22:36:00,83.0,67.7,29.90,ENE,60,4.0,7.0,60,0.00,,---,0.00,VWS V14.01,2013-07-07 03:36:00,
2013-07-06 22:41:00,82.8,66.5,29.90,NE,51,6.0,7.0,58,0.00,,---,0.00,VWS V14.01,2013-07-07 03:41:00,
2013-07-06 22:47:00,82.6,66.8,29.90,ENE,62,6.0,7.0,59,0.00,,---,0.00,VWS V14.01,2013-07-07 03:47:00,
2013-07-06 22:52:00,82.5,67.2,29.90,ESE,107,4.0,7.0,60,0.00,,---,0.00,VWS V14.01,2013-07-07 03:52:00,
2013-07-06 22:57:00,82.3,66.6,29.90,SW,217,5.0,7.0,59,0.00,,---,0.00,VWS V14.01,2013-07-07 03:57:00,
2013-07-06 23:01:00,82.3,67.0,29.90,SE,132,4.0,7.0,60,0.00,,---,0.00,VWS V14.01,2013-07-07 04:01:00,
2013-07-06 23:06:00,82.2,67.4,29.90,North,357,1.0,7.0,61,0.00,,---,0.00,VWS V14.01,2013-07-07 04:06:00,
2013-07-06 23:11:00,82.0,67.2,29.90,NNE,25,4.0,7.0,61,0.00,,---,0.00,VWS V14.01,2013-07-07 04:11:00,
2013-07-06 23:16:00,82.0,67.7,29.91,NNE,27,2.0,8.0,62,0.00,,---,0.00,VWS V14.01,2013-07-07 04:16:00,
2013-07-06 23:21:00,81.8,67.1,29.90,East,86,3.0,8.0,61,0.00,,---,0.00,VWS V14.01,2013-07-07 04:21:00,
2013-07-06 23:26:00,81.7,67.9,29.90,West,269,1.0,8.0,63,0.00,,---,0.00,VWS V14.01,2013-07-07 04:26:00,
2013-07-06 23:31:00,81.5,67.7,29.90,ENE,75,5.0,8.0,63,0.00,,---,0.00,VWS V14.01,2013-07-07 04:31:00,
2013-07-06 23:36:00,81.4,68.1,29.90,NE,41,5.0,7.0,64,0.00,,---,0.00,VWS V14.01,2013-07-07 04:36:00,
2013-07-06 23:41:00,81.2,67.4,29.91,ENE,63,6.0,7.0,63,0.00,,---,0.00,VWS V14.01,2013-07-07 04:41:00,
2013-07-06 23:46:00,81.2,67.9,29.91,NE,44,3.0,7.0,64,0.00,,---,0.00,VWS V14.01,2013-07-07 04:46:00,
2013-07-06 23:51:00,81.0,67.7,29.91,WNW,286,2.0,7.0,64,0.00,,---,0.00,VWS V14.01,2013-07-07 04:51:00,
2013-07-06 23:56:00,80.9,67.6,29.91,East,84,1.0,7.0,64,0.00,,---,0.00,VWS V14.01,2013-07-07 04:56:00,